Mora, MN

1:51 PM CDT on July 20, 2017 (GMT -0500)
Mora Municipal

Weather History for KJMR - February, 2013

Change the Weather History Date:

Saturday, February 9, 2013

  Actual Average Record
Temperature  
Mean Temperature 24 °F -  
Max Temperature 30 °F 24 °F 56 °F (1991)
Min Temperature 17 °F -5 °F -35 °F (1975)
Degree Days  
Heating Degree Days 42    
Moisture  
Dew Point 22 °F    
Average Humidity 84    
Maximum Humidity 93    
Minimum Humidity 73    
Precipitation  
Precipitation 0.00 in - - ()
Sea Level Pressure  
Sea Level Pressure 30.05 in    
Wind  
Wind Speed 7 mph (SSE)    
Max Wind Speed 15 mph    
Max Gust Speed 17 mph    
Visibility 7 miles    
Events Snow    
Averages and records for this station are not official NWS values.
T = Trace of Precipitation, MM = Missing Value Source: NWS Daily Summary

Daily Weather History Graph

Daily Weather History Graph

Search for Another Location

Airport or City:

Trip Planner

Search our weather history database for the weather conditions in past years. The results will help you decide how hot, cold, wet, or windy it might be!

Date:

Astronomy

Feb. 09, 2013 Rise Set
Actual Time 7:24 AM CST 5:31 PM CST
Civil Twilight 6:53 AM CST 6:02 PM CST
Nautical Twilight 6:17 AM CST 6:37 PM CST
Astronomical Twilight 5:43 AM CST 7:12 PM CST
Moon 6:35 AM CST (2/9) 5:16 PM CST (2/9)
Length of Visible Light 11h 09m
Length of Day
10h 07m
Waning Crescent, 0% of the Moon is Illuminated
Feb 9
Waning Crescent
Feb 10
New
Feb 17
First Quarter
Feb 25
Full
Mar 4
Last Quarter

Hourly Weather History & Observations

Time (CST) Temp. Windchill Dew Point Humidity Pressure Visibility Wind Dir Wind Speed Gust Speed Precip Events Conditions
12:13 AM 17.6 °F 9.3 °F 10.4 °F 73% 30.20 in 10.0 mi SE 5.8 mph - N/A   Overcast
12:33 AM 17.6 °F 10.7 °F 10.4 °F 73% 30.20 in 10.0 mi SE 4.6 mph - N/A   Overcast
12:53 AM 17.6 °F 12.3 °F 12.2 °F 79% 30.19 in 10.0 mi SE 3.5 mph - N/A   Overcast
1:13 AM 17.6 °F 9.3 °F 12.2 °F 79% 30.19 in 10.0 mi SE 5.8 mph - N/A   Overcast
1:33 AM 17.6 °F 10.7 °F 12.2 °F 79% 30.18 in 10.0 mi SE 4.6 mph - N/A   Overcast
1:53 AM 19.4 °F 12.8 °F 14.0 °F 80% 30.17 in 10.0 mi ESE 4.6 mph - N/A   Overcast
2:13 AM 19.4 °F 12.8 °F 14.0 °F 80% 30.17 in 10.0 mi SE 4.6 mph - N/A   Overcast
2:33 AM 19.4 °F 11.5 °F 14.0 °F 80% 30.17 in 10.0 mi SE 5.8 mph - N/A   Overcast
2:53 AM 19.4 °F 12.8 °F 15.8 °F 86% 30.15 in 10.0 mi SE 4.6 mph - N/A   Overcast
3:13 AM 21.2 °F 10.9 °F 17.6 °F 86% 30.14 in 10.0 mi SSE 9.2 mph - N/A   Overcast
3:33 AM 21.2 °F 11.7 °F 17.6 °F 86% 30.13 in 10.0 mi SSE 8.1 mph - N/A   Overcast
3:53 AM 21.2 °F 10.9 °F 17.6 °F 86% 30.12 in 10.0 mi SSE 9.2 mph - N/A   Overcast
4:13 AM 21.2 °F 12.6 °F 17.6 °F 86% 30.11 in 10.0 mi SSE 6.9 mph - N/A   Overcast
4:33 AM 23.0 °F 13.1 °F 19.4 °F 86% 30.11 in 10.0 mi SSE 9.2 mph - N/A   Overcast
4:53 AM 23.0 °F 14.7 °F 19.4 °F 86% 30.11 in 10.0 mi South 6.9 mph - N/A   Overcast
5:13 AM 23.0 °F 14.7 °F 19.4 °F 86% 30.11 in 10.0 mi SSE 6.9 mph - N/A   Overcast
5:33 AM 24.8 °F 17.9 °F 21.2 °F 86% 30.10 in 10.0 mi SSE 5.8 mph - N/A   Overcast
5:53 AM 24.8 °F 16.9 °F 21.2 °F 86% 30.09 in 10.0 mi SSE 6.9 mph - N/A   Overcast
6:13 AM 24.8 °F 16.1 °F 21.2 °F 86% 30.09 in 4.0 mi SSE 8.1 mph - N/A Snow Light Snow
6:33 AM 24.8 °F 16.1 °F 21.2 °F 86% 30.07 in 10.0 mi SSE 8.1 mph - N/A   Overcast
6:53 AM 24.8 °F 15.3 °F 21.2 °F 86% 30.07 in 10.0 mi SSE 9.2 mph - N/A   Overcast
7:13 AM 24.8 °F 16.1 °F 21.2 °F 86% 30.07 in 10.0 mi SSE 8.1 mph - N/A   Overcast
7:33 AM 24.8 °F 15.3 °F 21.2 °F 86% 30.07 in 10.0 mi South 9.2 mph - N/A   Overcast
7:53 AM 26.6 °F 18.2 °F 23.0 °F 86% 30.07 in 7.0 mi South 8.1 mph - N/A   Overcast
8:13 AM 26.6 °F 19.1 °F 23.0 °F 86% 30.08 in 7.0 mi South 6.9 mph - N/A   Overcast
8:33 AM 26.6 °F 18.2 °F 23.0 °F 86% 30.08 in 7.0 mi South 8.1 mph - N/A   Overcast
8:53 AM 26.6 °F 18.2 °F 23.0 °F 86% 30.08 in 7.0 mi South 8.1 mph - N/A   Overcast
9:13 AM 26.6 °F 16.8 °F 23.0 °F 86% 30.08 in 7.0 mi SSW 10.4 mph - N/A   Overcast
9:33 AM 26.6 °F 17.5 °F 23.0 °F 86% 30.07 in 7.0 mi South 9.2 mph - N/A   Overcast
9:53 AM 26.6 °F 16.2 °F 23.0 °F 86% 30.07 in 7.0 mi South 11.5 mph 17.3 mph N/A   Overcast
10:13 AM 26.6 °F 17.5 °F 23.0 °F 86% 30.07 in 7.0 mi South 9.2 mph - N/A   Overcast
10:33 AM 28.4 °F 18.5 °F 23.0 °F 80% 30.07 in 10.0 mi South 11.5 mph 16.1 mph N/A   Overcast
10:53 AM 28.4 °F 19.1 °F 23.0 °F 80% 30.07 in 10.0 mi South 10.4 mph 16.1 mph N/A   Overcast
11:13 AM 28.4 °F 19.7 °F 23.0 °F 80% 30.07 in 10.0 mi SSW 9.2 mph - N/A   Overcast
11:33 AM 28.4 °F 17.0 °F 23.0 °F 80% 30.07 in 10.0 mi SSW 15.0 mph - N/A   Overcast
11:53 AM 28.4 °F 17.5 °F 23.0 °F 80% 30.06 in 10.0 mi SSW 13.8 mph - N/A   Overcast
12:13 PM 28.4 °F 17.5 °F 23.0 °F 80% 30.05 in 10.0 mi SSW 13.8 mph - N/A   Overcast
12:33 PM 28.4 °F 17.5 °F 23.0 °F 80% 30.04 in 10.0 mi SW 13.8 mph 17.3 mph N/A   Overcast
12:53 PM 28.4 °F 18.5 °F 23.0 °F 80% 30.03 in 10.0 mi SSW 11.5 mph - N/A   Overcast
1:13 PM 30.2 °F 20.2 °F 23.0 °F 75% 30.02 in 10.0 mi SSW 12.7 mph - N/A   Overcast
1:33 PM 30.2 °F 21.9 °F 23.0 °F 75% 30.02 in 10.0 mi SSW 9.2 mph - N/A   Overcast
1:53 PM 30.2 °F 21.9 °F 23.0 °F 75% 30.01 in 10.0 mi SSW 9.2 mph - N/A   Overcast
2:13 PM 30.2 °F 21.3 °F 23.0 °F 75% 30.00 in 10.0 mi South 10.4 mph - N/A   Overcast
2:33 PM 30.2 °F 22.6 °F 23.0 °F 75% 29.99 in 10.0 mi South 8.1 mph - N/A   Overcast
2:53 PM 30.2 °F 21.9 °F 23.0 °F 75% 29.99 in 10.0 mi South 9.2 mph - N/A   Overcast
3:13 PM 30.2 °F 21.9 °F 23.0 °F 75% 29.99 in 10.0 mi South 9.2 mph - N/A   Overcast
3:33 PM 30.2 °F 23.4 °F 24.8 °F 80% 29.98 in 10.0 mi South 6.9 mph - N/A   Overcast
3:53 PM 30.2 °F 21.9 °F 24.8 °F 80% 29.98 in 10.0 mi South 9.2 mph - N/A   Overcast
4:13 PM 30.2 °F 22.6 °F 24.8 °F 80% 29.98 in 7.0 mi South 8.1 mph - N/A   Overcast
4:33 PM 30.2 °F 23.4 °F 24.8 °F 80% 29.97 in 7.0 mi SSE 6.9 mph - N/A   Overcast
4:53 PM 30.2 °F 24.3 °F 24.8 °F 80% 29.97 in 5.0 mi SSE 5.8 mph - N/A   Haze
5:13 PM 30.2 °F 25.4 °F 26.6 °F 86% 29.97 in 3.0 mi SSE 4.6 mph - N/A   Overcast
5:33 PM 30.2 °F 26.7 °F 26.6 °F 86% 29.97 in 2.5 mi SE 3.5 mph - N/A   Overcast
5:53 PM 28.4 °F - 26.6 °F 93% 29.97 in 2.5 mi Calm Calm - N/A   Overcast
6:13 PM 28.4 °F - 26.6 °F 93% 29.97 in 2.5 mi Calm Calm - N/A   Overcast
6:33 PM 28.4 °F 23.3 °F 26.6 °F 93% 29.97 in 2.0 mi ESE 4.6 mph - N/A   Overcast
6:53 PM 30.2 °F 24.3 °F 26.6 °F 86% 29.97 in 2.0 mi ESE 5.8 mph - N/A   Overcast
7:33 PM 30.2 °F 25.4 °F 26.6 °F 86% 29.97 in 2.5 mi SE 4.6 mph - N/A   Overcast
7:53 PM 30.2 °F 24.3 °F 28.4 °F 93% 29.97 in 2.5 mi ESE 5.8 mph - N/A   Overcast
8:13 PM 30.2 °F 25.4 °F 28.4 °F 93% 29.97 in 2.5 mi SE 4.6 mph - N/A   Overcast
8:33 PM 30.2 °F 25.4 °F 28.4 °F 93% 29.97 in 2.5 mi SE 4.6 mph - N/A   Overcast
8:53 PM 30.2 °F 24.3 °F 28.4 °F 93% 29.96 in 2.5 mi ESE 5.8 mph - N/A   Overcast
9:13 PM 30.2 °F 25.4 °F 28.4 °F 93% 29.95 in 3.0 mi SE 4.6 mph - N/A   Overcast
9:33 PM 28.4 °F 22.2 °F 26.6 °F 93% 29.95 in 2.5 mi SE 5.8 mph - N/A   Overcast
9:53 PM 28.4 °F 22.2 °F 26.6 °F 93% 29.97 in 3.0 mi SSE 5.8 mph - N/A   Overcast
10:13 PM 28.4 °F 22.2 °F 26.6 °F 93% 29.97 in 2.5 mi SE 5.8 mph - N/A   Overcast
10:33 PM 28.4 °F 22.2 °F 26.6 °F 93% 29.96 in 2.0 mi SE 5.8 mph - N/A   Overcast
10:53 PM 28.4 °F 21.2 °F 26.6 °F 93% 29.95 in 2.5 mi SE 6.9 mph - N/A   Overcast
11:13 PM 28.4 °F 22.2 °F 26.6 °F 93% 29.94 in 2.5 mi SSE 5.8 mph - N/A   Overcast
11:33 PM 28.4 °F 22.2 °F 26.6 °F 93% 29.94 in 2.5 mi SE 5.8 mph - N/A   Overcast
11:53 PM 28.4 °F 22.2 °F 26.6 °F 93% 29.94 in 2.0 mi SE 5.8 mph - N/A   Overcast